Weather History for Wayne, NE

Change the Weather History Date:

Sunday, May 26, 2013

  Actual Average (KOFK) Record (KOFK)
Temperature  
Mean Temperature 59 °F 64 °F  
Max Temperature 66 °F 75 °F 95 °F (1914)
Min Temperature 52 °F 52 °F 33 °F (1992)
Degree Days  
Heating Degree Days 6 4  
Month to date heating degree days 174  
Since 1 July heating degree days 6597  
Cooling Degree Days 0 2  
Month to date cooling degree days 36  
Year to date cooling degree days 48  
Growing Degree Days 9 (Base 50)    
Moisture  
Dew Point 58 °F    
Average Humidity 93    
Maximum Humidity 97    
Minimum Humidity 86    
Precipitation  
Precipitation 0.09 in 0.13 in 3.41 in (1973)
Month to date precipitation 3.22  
Year to date precipitation 8.99  
Snow  
Snow 0.00 in 0.00 in - ()
Month to date snowfall 0.3  
Since 1 July snowfall 30.8  
Snow Depth -    
Sea Level Pressure  
Sea Level Pressure 29.94 in    
Wind  
Wind Speed 16 mph (East)    
Max Wind Speed 26 mph    
Max Gust Speed 32 mph    
Visibility 6 miles    
Events Rain , Thunderstorm    
T = Trace of Precipitation, MM = Missing Value Source: NWS Daily Summary

Daily Weather History Graph

Daily Weather History Graph

Search for Another Location

Airport:

Trip Planner

Search our weather history database for the weather conditions in past years. The results will help you decide how hot, cold, wet, or windy it might be!

Date:

Astronomy

May. 26, 2013 Rise Set
Actual Time 5:57 AM CDT 8:53 PM CDT
Civil Twilight 5:24 AM CDT 9:26 PM CDT
Nautical Twilight 4:41 AM CDT 10:08 PM CDT
Astronomical Twilight 3:52 AM CDT 10:58 PM CDT
Moon 10:41 PM CDT (5/26) 7:28 AM CDT (5/26)
Length of Visible Light 16h 02m
Length of Day
14h 55m
Waning Gibbous, 96% of the Moon is Illuminated
May 26
Waning Gibbous
May 31
Last Quarter
Jun 8
New
Jun 16
First Quarter
Jun 23
Full

Hourly Weather History & Observations

Time (CDT) Temp. Dew Point Humidity Pressure Visibility Wind Dir Wind Speed Gust Speed Precip Events Conditions
12:15 AM 60.8 °F 58.3 °F 91% 29.96 in 10.0 mi SE 16.1 mph 25.3 mph N/A   Overcast
12:35 AM 60.8 °F 58.5 °F 92% 29.95 in 10.0 mi SE 17.3 mph 23.0 mph N/A   Overcast
12:55 AM 60.8 °F 58.5 °F 92% 29.95 in 7.0 mi SE 17.3 mph 25.3 mph N/A   Overcast
1:15 AM 60.8 °F 58.6 °F 93% 29.96 in 7.0 mi SE 19.6 mph 25.3 mph N/A   Overcast
1:35 AM 60.8 °F 58.8 °F 93% 29.95 in 7.0 mi SE 17.3 mph - N/A   Overcast
1:55 AM 60.8 °F 59.0 °F 94% 29.93 in 7.0 mi SE 20.7 mph 28.8 mph N/A   Overcast
2:15 AM 61.0 °F 59.0 °F 93% 29.94 in 7.0 mi SE 16.1 mph 26.5 mph N/A   Overcast
2:35 AM 61.0 °F 59.0 °F 93% 29.93 in 7.0 mi SSE 20.7 mph - N/A   Overcast
2:55 AM 61.0 °F 59.0 °F 93% 29.94 in 7.0 mi SE 13.8 mph 21.9 mph N/A   Overcast
3:15 AM 61.0 °F 59.2 °F 94% 29.94 in 7.0 mi SE 12.7 mph - N/A   Overcast
3:35 AM 61.2 °F 59.2 °F 93% 29.96 in 7.0 mi ENE 8.1 mph - N/A   Overcast
3:55 AM 61.2 °F 59.4 °F 94% 29.95 in 7.0 mi East 9.2 mph - N/A   Overcast
4:15 AM 60.6 °F 58.3 °F 92% 29.96 in 7.0 mi East 10.4 mph - N/A   Overcast
4:35 AM 58.5 °F 56.8 °F 94% 29.96 in 4.0 mi ENE 10.4 mph - N/A   Overcast
4:55 AM 56.3 °F 54.5 °F 94% 29.97 in 5.0 mi ENE 18.4 mph 26.5 mph N/A   Overcast
5:15 AM 55.4 °F 54.0 °F 95% 29.97 in 5.0 mi ENE 26.5 mph - N/A   Overcast
5:35 AM 53.8 °F 52.3 °F 95% 29.98 in 7.0 mi ENE 21.9 mph 32.2 mph N/A   Overcast
5:55 AM 52.9 °F 51.6 °F 95% 29.97 in 5.0 mi East 24.2 mph 29.9 mph N/A Thunderstorm Overcast
6:15 AM 52.9 °F 51.4 °F 95% 29.97 in 7.0 mi East 23.0 mph 31.1 mph N/A   Overcast
6:35 AM 53.2 °F 51.6 °F 94% 29.97 in 10.0 mi East 21.9 mph 26.5 mph N/A   Overcast
6:55 AM 53.6 °F 51.3 °F 92% 29.98 in 10.0 mi East 21.9 mph 28.8 mph N/A   Overcast
7:15 AM 54.1 °F 51.8 °F 92% 30.01 in 10.0 mi ENE 15.0 mph 25.3 mph N/A   Overcast
7:35 AM 55.0 °F 52.7 °F 92% 30.00 in 4.0 mi East 21.9 mph 28.8 mph N/A   Overcast
7:55 AM 55.4 °F 53.8 °F 94% 30.00 in 2.5 mi East 20.7 mph 26.5 mph N/A Rain Light Rain
8:15 AM 55.9 °F 54.5 °F 95% 29.98 in 3.0 mi East 17.3 mph - N/A   Overcast
8:35 AM 56.8 °F 55.6 °F 96% 29.97 in 5.0 mi East 18.4 mph 23.0 mph N/A   Overcast
8:55 AM 57.6 °F 56.1 °F 95% 29.97 in 5.0 mi ESE 18.4 mph - N/A   Overcast
9:15 AM 58.3 °F 56.3 °F 93% 29.97 in 7.0 mi ESE 15.0 mph - N/A   Overcast
9:35 AM 58.6 °F 56.5 °F 93% 29.98 in 7.0 mi SE 15.0 mph - N/A   Overcast
9:55 AM 59.0 °F 57.4 °F 94% 29.98 in 2.5 mi ESE 16.1 mph - N/A Thunderstorm Overcast
10:15 AM 59.7 °F 58.5 °F 96% 29.98 in 1.2 mi SE 20.7 mph 24.2 mph N/A Rain , Thunderstorm Light Thunderstorms and Rain
10:35 AM 58.8 °F 57.7 °F 96% 29.98 in 2.0 mi SE 16.1 mph - 0.03 in Rain , Thunderstorm Light Thunderstorms and Rain
10:55 AM 58.6 °F 57.6 °F 96% 29.96 in 3.0 mi SE 18.4 mph - 0.09 in Rain Light Rain
11:15 AM 59.0 °F 58.1 °F 97% 29.96 in 5.0 mi SE 13.8 mph - N/A   Overcast
11:35 AM 61.0 °F 59.5 °F 95% 29.97 in 5.0 mi ESE 9.2 mph - N/A   Overcast
11:55 AM 60.3 °F 58.8 °F 95% 29.98 in 5.0 mi East 9.2 mph - N/A   Overcast
12:15 PM 59.9 °F 58.5 °F 95% 29.97 in 5.0 mi East 11.5 mph - N/A   Overcast
12:35 PM 60.1 °F 59.0 °F 96% 29.99 in 4.0 mi ESE 11.5 mph - N/A   Overcast
12:55 PM 60.1 °F 59.0 °F 96% 29.97 in 4.0 mi SE 16.1 mph - N/A   Overcast
1:15 PM 59.9 °F 58.8 °F 96% 29.96 in 4.0 mi ESE 15.0 mph - N/A   Overcast
1:35 PM 59.9 °F 58.5 °F 95% 29.98 in 3.0 mi East 11.5 mph - N/A   Overcast
1:55 PM 59.9 °F 59.0 °F 97% 29.98 in 1.5 mi East 10.4 mph - N/A   Overcast
2:15 PM 59.9 °F 59.0 °F 97% 29.97 in 1.8 mi East 9.2 mph - N/A   Overcast
2:35 PM 60.3 °F 59.4 °F 97% 29.97 in 1.8 mi East 13.8 mph - N/A   Overcast
2:55 PM 60.3 °F 59.5 °F 97% 29.96 in 1.5 mi East 15.0 mph 21.9 mph N/A Rain Light Rain
3:15 PM 60.3 °F 59.4 °F 97% 29.94 in 1.8 mi East 16.1 mph 21.9 mph N/A   Overcast
3:35 PM 60.4 °F 59.4 °F 96% 29.94 in 2.0 mi East 15.0 mph 23.0 mph N/A   Overcast
3:55 PM 61.0 °F 59.9 °F 96% 29.93 in 3.0 mi East 17.3 mph - N/A   Overcast
4:15 PM 61.9 °F 60.4 °F 95% 29.92 in 4.0 mi East 16.1 mph - N/A   Overcast
4:35 PM 63.1 °F 61.2 °F 93% 29.91 in 5.0 mi East 13.8 mph - N/A   Overcast
4:55 PM 64.0 °F 61.5 °F 91% 29.90 in 5.0 mi ESE 15.0 mph - N/A   Overcast
5:15 PM 65.7 °F 62.6 °F 90% 29.88 in 7.0 mi ESE 15.0 mph 20.7 mph N/A   Overcast
5:35 PM 66.4 °F 62.6 °F 88% 29.88 in 7.0 mi East 17.3 mph - N/A   Overcast
5:55 PM 65.5 °F 61.9 °F 88% 29.88 in 7.0 mi ESE 21.9 mph - N/A   Overcast
6:15 PM 63.0 °F 59.9 °F 90% 29.89 in 5.0 mi East 17.3 mph 24.2 mph N/A   Overcast
6:35 PM 62.6 °F 60.3 °F 92% 29.89 in 5.0 mi East 15.0 mph - N/A   Overcast
6:55 PM 63.9 °F 61.2 °F 91% 29.90 in 5.0 mi ESE 9.2 mph - N/A   Overcast
7:15 PM 64.6 °F 61.5 °F 90% 29.92 in 5.0 mi East 3.5 mph - N/A Thunderstorm Overcast
7:35 PM 64.9 °F 61.2 °F 88% 29.92 in 7.0 mi East 3.5 mph - N/A   Overcast
7:55 PM 64.9 °F 61.3 °F 88% 29.92 in 10.0 mi NNE 4.6 mph - N/A   Overcast
8:15 PM 65.1 °F 61.0 °F 86% 29.92 in 10.0 mi Calm Calm - N/A   Overcast
8:35 PM 64.9 °F 60.8 °F 86% 29.91 in 10.0 mi ENE 8.1 mph - N/A   Overcast
8:55 PM 64.6 °F 60.4 °F 86% 29.89 in 10.0 mi ENE 13.8 mph - N/A   Overcast
9:15 PM 64.4 °F 60.8 °F 88% 29.86 in 10.0 mi East 11.5 mph - N/A   Overcast
9:35 PM 64.0 °F 61.0 °F 90% 29.84 in 10.0 mi East 15.0 mph - N/A   Overcast
9:55 PM 63.5 °F 61.2 °F 92% 29.85 in 10.0 mi East 20.7 mph 26.5 mph N/A   Overcast
10:15 PM 62.8 °F 60.8 °F 93% 29.85 in 10.0 mi East 16.1 mph 20.7 mph N/A   Overcast
10:35 PM 61.5 °F 59.5 °F 93% 29.88 in 7.0 mi East 13.8 mph - N/A   Overcast
10:55 PM 60.6 °F 59.0 °F 94% 29.88 in 5.0 mi East 25.3 mph 28.8 mph N/A   Overcast
11:15 PM 59.0 °F 58.1 °F 97% 29.88 in 3.0 mi ENE 20.7 mph 25.3 mph N/A   Overcast
11:35 PM 58.1 °F 57.4 °F 97% 29.85 in 3.0 mi East 20.7 mph - N/A Thunderstorm Overcast
11:55 PM 57.4 °F 56.5 °F 97% 29.85 in 2.5 mi East 24.2 mph 27.6 mph N/A   Overcast